This is the latest recevied weather packets stored in our database for station/object N5COP-13. If no packets are shown the sender has not sent any weather packets the latest 10 day(s).
| Time | Temp. | Humidity | Pressure | Rain* | Wind** | Luminosity | Snow |
|---|---|---|---|---|---|---|---|
| 1777693360 | 5° C | 82% | 1022.1 hPa | 0 mm | - | 0 W/m² | - |
| 1777693058 | 5° C | 82% | 1021.9 hPa | 0 mm | - | 0 W/m² | - |
| 1777692755 | 5° C | 81% | 1022 hPa | 0 mm | - | 0 W/m² | - |
| 1777692452 | 5° C | 81% | 1022.2 hPa | 0 mm | - | 0 W/m² | - |
| 1777692147 | 5.56° C | 80% | 1022.2 hPa | 0 mm | - | 0 W/m² | - |
| 1777691846 | 5.56° C | 80% | 1022.1 hPa | 0 mm | - | 0 W/m² | - |
| 1777691544 | 6.11° C | 80% | 1022.2 hPa | 0 mm | - | 0 W/m² | - |
| 1777691242 | 6.11° C | 79% | 1022 hPa | 0 mm | - | 0 W/m² | - |
| 1777690940 | 6.11° C | 79% | 1022 hPa | 0 mm | - | 0 W/m² | - |
| 1777690647 | 6.11° C | 78% | 1022.1 hPa | 0 mm | - | 0 W/m² | - |
| 1777690335 | 6.67° C | 78% | 1022 hPa | 0 mm | - | 0 W/m² | - |
| 1777690032 | 6.67° C | 77% | 1021.9 hPa | 0 mm | - | 0 W/m² | - |
| 1777689730 | 6.67° C | 77% | 1021.8 hPa | 0 mm | - | 0 W/m² | - |
| 1777689428 | 7.22° C | 76% | 1021.7 hPa | 0 mm | - | 0 W/m² | - |
| 1777689125 | 7.22° C | 76% | 1021.7 hPa | 0 mm | - | 0 W/m² | - |
| 1777688822 | 7.22° C | 76% | 1021.8 hPa | 0 mm | - | 0 W/m² | - |
| 1777688519 | 7.22° C | 75% | 1021.8 hPa | 0 mm | - | 0 W/m² | - |
| 1777688216 | 7.78° C | 75% | 1021.6 hPa | 0 mm | - | 0 W/m² | - |
| 1777687913 | 7.78° C | 74% | 1021.5 hPa | 0 mm | - | 0 W/m² | - |
| 1777687610 | 7.78° C | 73% | 1021.3 hPa | 0 mm | - | 0 W/m² | - |
| 1777687307 | 8.33° C | 72% | 1021.3 hPa | 0 mm | - | 0 W/m² | - |
| 1777687005 | 8.33° C | 70% | 1021.2 hPa | 0 mm | - | 0 W/m² | - |
| 1777686701 | 8.89° C | 69% | 1021.2 hPa | 0 mm | - | 0 W/m² | - |
| 1777686399 | 9.44° C | 68% | 1021.1 hPa | 0 mm | - | 1 W/m² | - |
| 1777686096 | 9.44° C | 67% | 1021.1 hPa | 0 mm | - | 1 W/m² | - |
* Rain latest hour (hover to see other rain measurements)
** Current wind speed in m/s (hover to see current wind gust speed)